Guadalupe Pass, TX

7:27 AM MDT on September 15, 2019 (GMT -0600)
Guadalupe Pass

Weather History for KGDP - August, 2019

Change the Weather History Date:

Saturday, August 24, 2019

  Actual Average Record
Temperature  
Mean Temperature 76 °F -  
Max Temperature 91 °F 82 °F 97 °F (2001)
Min Temperature 64 °F 63 °F 57 °F (2016)
Cooling Degree Days 12    
Growing Degree Days 26 (Base 50)    
Moisture  
Dew Point 51 °F    
Average Humidity 44    
Maximum Humidity 68    
Minimum Humidity 23    
Precipitation  
Precipitation 0.00 in - - ()
Sea Level Pressure  
Sea Level Pressure 29.91 in    
Wind  
Wind Speed 14 mph ()    
Max Wind Speed 29 mph    
Max Gust Speed 36 mph    
Visibility 9.8 miles    
Events      
Averages and records for this station are not official NWS values.
T = Trace of Precipitation, MM = Missing Value Source: Averaged Metar Reports

Daily Weather History Graph

Daily Weather History Graph

Search for Another Location

Airport or City:

Astronomy

Aug. 24, 2019 Rise Set
Actual Time 6:29 AM MDT 7:33 PM MDT
Civil Twilight 6:04 AM MDT 7:58 PM MDT
Nautical Twilight 5:34 AM MDT 8:28 PM MDT
Astronomical Twilight 5:03 AM MDT 8:58 PM MDT
Moon 12:31 AM MDT (8/24) 2:41 PM MDT (8/24)
Length of Visible Light 13h 53m
Length of Day
13h 03m
Last Quarter, 38% of the Moon is Illuminated
Aug 24
Last Quarter
Aug 30
New
Sep 5
First Quarter
Sep 13
Full
Sep 21
Last Quarter

Hourly Weather History & Observations

Time (MDT) Temp. Heat Index Dew Point Humidity Pressure Visibility Wind Dir Wind Speed Gust Speed Precip Events Conditions
12:51 AM 66.0 °F - 54.0 °F 65% 29.89 in 10.0 mi WSW 11.5 mph - N/A   Clear
1:51 AM 68.0 °F - 54.0 °F 61% 29.89 in 10.0 mi WSW 20.7 mph 27.6 mph N/A   Clear
2:51 AM 66.9 °F - 54.0 °F 63% 29.89 in 10.0 mi WSW 18.4 mph - N/A   Clear
3:51 AM 70.0 °F - 48.9 °F 47% 29.88 in 10.0 mi West 13.8 mph - N/A   Clear
4:51 AM 70.0 °F - 50.0 °F 49% 29.92 in 10.0 mi WSW 13.8 mph - N/A   Clear
5:51 AM 68.0 °F - 50.0 °F 52% 29.94 in 10.0 mi WSW 12.7 mph - N/A   Clear
6:51 AM 64.0 °F - 53.1 °F 67% 29.97 in 10.0 mi WSW 12.7 mph - N/A   Clear
7:51 AM 64.9 °F - 54.0 °F 68% 29.97 in 10.0 mi SW 12.7 mph - N/A   Clear
8:51 AM 66.0 °F - 55.0 °F 68% 29.98 in 9.0 mi SW 9.2 mph - N/A   Clear
9:51 AM 71.1 °F - 55.0 °F 57% 29.99 in 10.0 mi SW 12.7 mph - N/A   Clear
10:51 AM 79.0 °F - 54.0 °F 42% 29.96 in 10.0 mi WSW 20.7 mph 25.3 mph N/A   Clear
11:51 AM 81.0 °F 80.4 °F 53.1 °F 38% 29.94 in 10.0 mi WSW 23.0 mph - N/A   Clear
12:51 PM 84.9 °F 83.2 °F 53.1 °F 33% 29.92 in 9.0 mi WSW 23.0 mph 31.1 mph N/A   Clear
1:51 PM 87.1 °F - 51.1 °F 29% 29.89 in 10.0 mi WSW 24.2 mph 29.9 mph N/A   Clear
2:51 PM 88.0 °F - 52.0 °F 29% 29.87 in 10.0 mi WSW 28.8 mph 35.7 mph N/A   Clear
3:51 PM 89.1 °F - 48.9 °F 25% 29.84 in 10.0 mi WSW 20.7 mph 32.2 mph N/A   Clear
4:51 PM 88.0 °F - 46.0 °F 23% 29.85 in 10.0 mi WSW 18.4 mph 26.5 mph N/A   Clear
5:51 PM 87.1 °F - 50.0 °F 28% 29.84 in 9.0 mi WSW 18.4 mph - N/A   Clear
6:51 PM 84.9 °F - 50.0 °F 30% 29.87 in 9.0 mi WSW 21.9 mph - N/A   Clear
7:51 PM 81.0 °F - 48.9 °F 33% 29.89 in 10.0 mi SW 18.4 mph - N/A   Clear
8:51 PM 78.1 °F - 50.0 °F 37% 29.92 in 10.0 mi WSW 8.1 mph - N/A   Clear
9:51 PM 78.1 °F - 48.0 °F 35% 29.91 in 10.0 mi West 13.8 mph - N/A   Clear
10:51 PM 77.0 °F - 48.9 °F 37% 29.89 in 10.0 mi WSW 12.7 mph - N/A   Clear
11:51 PM 75.0 °F - 48.9 °F 40% 29.89 in 10.0 mi WSW 10.4 mph - N/A   Clear